Theta_e
310 310 310 310 310 310 311 311 311 311 311 311 311 311 311 311 311 311 311 310 311 310 311 311 310 311 310 310 310 311 311 311 312 314 314 314 314 314 314 313 312 312 312 312 312 313 314 314 314 314 315 314 314 316 315 316 315 320 332 332 324 323 323 321 320 315 318 322 314 312 314 315 316 314 314 315 314 314 314 314 315 316 315 316 315 315 315 315
310 310 310 310 310 310 311 311 311 311 310 310 310 311 311 311 310 311 311 310 310 310 311 311 310 311 310 310 310 311 311 311 312 314 315 315 315 314 313 312 312 312 312 313 312 313 314 314 315 315 315 315 315 316 315 317 315 321 331 330 328 328 319 316 316 312 313 316 312 312 313 314 316 314 314 315 314 313 315 315 314 315 315 315 315 315 315 315
309 310 310 310 311 311 311 311 311 310 309 310 309 310 311 310 310 310 310 309 310 310 311 310 310 310 310 310 310 311 311 311 312 313 314 313 313 313 312 312 313 314 313 314 313 313 315 314 315 315 315 316 316 316 315 317 315 315 324 333 331 322 314 312 313 313 313 314 312 312 312 314 314 314 314 315 314 312 314 315 314 314 316 315 315 315 315 314
309 310 310 310 311 311 311 310 309 308 308 308 308 310 310 309 309 309 310 309 309 310 311 310 310 310 310 310 310 311 312 312 313 313 313 312 313 312 312 313 314 315 314 315 314 314 314 314 314 314 315 316 315 316 315 315 315 313 321 331 322 313 314 315 314 314 314 313 313 312 313 314 314 315 314 313 315 315 314 315 315 316 316 316 315 315 316 315
309 310 310 311 311 310 309 308 307 307 306 307 307 308 308 308 308 308 309 308 310 310 310 310 310 310 310 310 310 311 314 315 314 313 313 312 312 312 313 314 313 314 314 315 315 314 314 314 315 315 315 316 316 317 315 314 315 314 315 318 313 311 316 316 313 314 314 313 313 312 314 314 314 314 314 314 317 318 315 315 316 316 316 315 315 315 315 315
310 310 310 310 309 308 308 307 307 306 306 306 306 307 307 307 307 307 308 309 310 310 310 310 309 310 310 310 310 310 314 316 314 313 313 312 312 313 314 313 313 313 313 314 315 315 315 315 315 315 314 314 315 316 315 313 315 318 315 311 312 312 315 315 313 314 314 314 313 312 314 315 314 314 314 313 315 317 316 316 316 315 316 315 315 315 315 315
310 309 309 308 307 307 307 307 307 307 307 307 307 307 307 307 307 307 308 309 310 310 310 309 310 310 310 310 310 310 313 314 314 313 313 312 312 313 314 313 313 313 313 313 314 315 315 315 315 314 315 314 313 313 315 314 314 321 318 312 313 313 314 315 314 314 314 314 314 314 315 314 314 316 314 313 316 316 316 316 316 316 316 315 316 315 315 315
308 307 307 306 306 306 306 307 307 307 307 307 307 307 307 307 307 308 308 309 309 309 309 309 310 310 310 310 310 311 312 313 314 314 313 312 313 313 314 314 313 313 313 312 313 315 315 315 315 314 315 314 313 313 314 315 315 319 318 313 313 314 314 315 314 314 315 314 314 314 314 314 315 314 312 314 317 316 316 316 316 316 316 316 315 316 315 315
307 306 306 306 306 306 306 307 307 307 307 307 307 307 307 307 308 308 308 309 309 309 309 309 310 310 310 310 310 311 312 313 314 314 313 313 313 313 313 313 313 313 313 314 314 315 315 315 315 315 314 313 313 314 313 316 315 314 315 314 314 314 314 315 315 314 314 315 314 315 315 314 313 313 314 316 316 316 316 316 316 316 315 316 316 315 316 315
306 306 306 306 307 307 307 307 307 307 307 308 308 307 308 308 308 308 308 309 309 309 309 309 310 310 310 310 310 311 311 313 315 314 314 314 313 313 314 313 314 315 314 315 315 316 316 315 315 315 315 314 314 313 313 316 316 314 314 314 314 314 315 315 315 315 314 314 314 315 315 313 312 313 316 316 316 315 315 315 315 316 315 316 315 315 315 315
306 307 307 308 308 308 309 309 308 308 308 308 308 308 308 308 308 308 308 309 309 309 309 309 310 310 310 310 310 311 313 315 315 315 314 314 314 313 314 315 316 317 316 316 316 317 316 315 315 315 316 315 315 314 313 314 314 314 314 315 314 313 314 314 314 314 314 314 314 314 314 312 312 313 316 314 315 315 315 316 315 315 315 315 315 315 315 315
307 308 309 309 309 310 310 310 310 310 309 309 309 309 309 309 309 309 309 309 309 309 309 309 310 310 310 309 310 311 314 317 316 315 314 314 314 314 315 316 317 317 318 317 317 318 316 316 315 315 316 315 315 315 314 314 314 314 315 317 319 319 318 313 312 313 313 315 314 313 314 316 315 314 316 314 315 315 314 315 315 315 315 314 315 315 315 315
309 309 310 310 310 310 310 310 310 310 310 310 309 310 309 310 309 309 309 309 309 309 309 309 309 310 309 309 311 311 312 316 317 315 314 315 314 315 316 316 317 318 319 318 318 318 316 316 315 315 315 314 315 314 315 313 312 316 313 316 323 325 323 313 310 312 312 314 313 313 319 326 324 315 314 314 314 315 314 315 315 315 314 314 315 315 315 315
309 310 310 310 310 310 310 310 309 309 309 309 309 309 309 309 309 309 310 309 310 309 309 309 309 309 309 310 312 312 311 314 317 316 314 315 315 315 315 316 317 317 318 318 318 317 316 316 315 316 315 315 315 313 319 317 316 320 312 319 326 320 326 319 309 312 314 313 312 314 319 325 326 317 313 314 314 314 315 315 315 315 314 314 314 315 315 315
310 310 310 310 310 310 310 309 309 308 308 307 307 307 307 308 308 308 308 309 309 309 309 309 309 309 310 310 310 311 311 311 315 316 315 315 315 316 315 316 316 317 318 318 318 317 316 316 315 316 314 315 315 316 327 324 324 326 315 325 327 316 330 328 309 310 315 313 311 314 320 321 321 316 313 313 313 313 313 314 315 314 315 314 314 315 314 315
309 310 310 310 310 310 309 309 308 308 307 307 307 307 307 307 307 307 308 308 308 309 309 309 309 309 310 310 310 311 311 310 312 315 316 315 315 316 315 316 316 317 317 317 318 317 317 317 315 315 313 315 320 328 335 326 328 330 318 323 327 319 326 326 312 309 311 312 311 313 319 322 320 313 312 313 312 313 312 314 314 314 315 314 314 315 314 315
309 309 309 309 309 309 309 309 309 308 307 307 307 307 307 307 307 307 307 307 307 308 308 310 310 310 310 311 312 312 312 312 311 314 316 316 316 316 315 316 316 316 317 317 318 317 316 316 315 315 314 315 320 330 331 322 324 329 319 319 327 323 321 323 321 312 307 312 314 313 315 319 318 312 311 313 312 312 312 314 315 315 315 315 314 314 315 315
310 309 309 309 308 309 309 308 308 308 308 307 307 307 307 307 307 307 307 307 307 308 308 310 311 311 311 311 312 313 313 313 312 313 316 317 317 317 316 316 316 317 317 317 316 316 316 315 316 319 319 318 319 323 323 322 327 330 324 323 324 321 318 322 325 315 309 314 315 315 315 315 316 312 311 312 311 311 312 313 315 315 315 315 315 315 315 315
314 311 310 309 309 309 309 309 308 308 308 307 307 307 306 307 307 307 307 307 308 309 310 310 311 312 313 311 311 313 314 313 313 313 315 317 317 317 316 315 316 316 315 317 317 315 314 315 318 321 321 321 319 320 321 322 327 330 331 332 327 323 321 323 326 316 310 314 316 316 316 316 315 314 312 311 311 310 311 313 313 313 314 314 315 315 316 316
318 316 313 311 309 309 308 309 309 309 308 308 308 307 307 307 307 307 307 307 307 309 311 312 311 311 313 313 311 312 313 313 313 314 314 317 317 316 316 315 316 316 315 320 319 313 313 318 321 323 322 321 319 318 319 320 321 324 328 329 326 323 323 324 324 315 308 313 321 317 315 316 315 314 312 310 310 309 309 310 311 313 314 314 315 315 316 316
320 319 318 315 313 311 309 308 308 308 308 308 308 307 307 307 307 308 308 308 308 308 308 310 311 311 312 313 313 312 313 314 314 315 315 316 316 316 316 315 317 318 315 314 315 313 315 319 322 322 318 317 317 317 319 320 319 323 324 322 322 323 324 322 320 315 309 313 322 318 315 316 314 313 311 308 309 309 309 309 311 313 314 314 315 315 316 316
321 320 320 318 317 315 312 310 309 308 308 308 308 308 307 307 308 309 310 310 310 309 308 308 309 310 310 311 313 313 313 315 315 315 315 315 316 316 315 317 319 320 315 312 315 318 318 321 321 315 311 313 317 316 317 319 318 323 324 319 322 323 321 320 317 315 312 313 322 321 316 317 315 313 311 309 309 311 312 312 312 313 313 314 315 315 316 316
321 321 320 320 319 318 316 314 311 309 308 307 308 308 307 308 308 308 309 311 310 310 309 309 309 309 309 310 311 313 313 315 315 315 316 315 316 315 314 317 321 321 317 317 321 321 321 324 318 310 310 315 319 315 316 318 317 321 322 320 323 321 319 321 319 315 314 314 318 318 316 316 314 314 314 311 309 311 313 314 313 312 312 313 315 315 315 315
321 321 321 321 320 319 319 317 315 312 309 308 308 307 308 308 308 308 309 310 311 311 308 309 310 309 310 310 310 312 313 314 314 314 316 315 315 315 314 315 319 320 318 318 319 319 321 320 311 308 312 318 321 317 317 319 319 321 321 320 321 321 320 320 320 318 318 318 315 315 320 322 321 321 320 316 311 311 312 313 313 314 314 315 314 314 315 316
321 321 321 321 321 319 319 318 317 315 312 309 308 307 307 308 308 309 309 310 312 312 310 309 311 310 310 310 310 312 313 314 314 314 315 315 315 315 314 313 316 319 318 316 316 317 319 313 310 314 315 317 321 320 320 321 321 323 323 320 319 321 320 318 319 319 323 326 318 315 323 330 331 328 326 326 323 320 315 311 313 316 318 316 315 317 317 317
321 321 322 322 322 320 319 319 318 317 315 312 309 307 307 308 309 309 310 313 312 311 311 311 312 312 310 311 311 311 314 314 313 314 315 315 315 314 315 314 313 316 316 315 315 316 317 311 314 323 319 317 319 319 321 320 319 323 322 320 318 316 317 318 319 320 325 328 317 313 321 328 327 323 322 328 329 324 318 313 312 315 317 317 317 319 319 318
320 320 321 322 323 321 320 319 319 318 317 315 311 308 308 309 310 308 309 313 312 311 314 313 311 313 311 311 312 311 314 314 313 314 315 315 315 314 317 316 313 314 312 313 316 316 316 314 316 321 322 320 318 320 321 317 321 326 319 318 319 316 318 319 319 320 324 324 318 316 320 323 323 320 323 326 323 321 321 318 315 313 316 318 317 319 318 318
321 321 321 322 322 322 322 320 320 319 317 316 312 309 309 310 310 309 310 312 311 310 314 313 311 312 312 312 312 311 312 313 314 316 315 315 315 314 316 316 315 317 312 314 319 314 314 319 318 318 321 320 320 324 321 316 321 324 314 315 319 318 320 320 319 321 319 319 322 321 318 321 325 326 327 324 320 321 323 322 319 314 315 318 318 319 318 317
319 320 321 322 322 322 321 321 321 319 318 316 312 309 310 310 310 310 312 313 312 312 312 312 312 312 312 312 312 311 311 312 314 316 315 315 315 315 316 314 313 316 312 312 318 314 312 316 315 316 320 320 323 321 315 317 320 315 310 315 318 318 320 321 323 323 321 321 323 322 319 320 325 327 327 323 322 324 322 320 318 314 315 318 318 319 318 318
316 318 319 320 321 320 320 321 321 320 319 315 311 310 310 311 310 309 312 314 313 313 312 311 313 312 312 313 312 311 312 313 314 314 314 314 315 314 314 313 312 317 316 313 318 316 311 310 311 314 317 316 319 314 309 313 314 310 316 323 323 323 323 324 324 322 323 325 321 321 321 320 323 326 325 321 323 326 323 322 321 315 316 319 319 319 318 319
312 315 318 319 320 320 320 320 320 320 319 315 311 312 312 312 312 312 313 312 311 314 313 312 313 313 313 314 314 313 313 313 313 314 315 314 315 314 314 314 314 320 321 317 319 317 312 313 313 313 312 311 316 315 310 309 309 313 327 328 324 326 325 324 325 323 324 326 321 317 318 318 322 325 324 320 321 324 323 325 327 321 317 319 319 318 318 318
309 311 315 317 319 319 319 320 320 320 319 315 312 312 312 312 314 315 315 314 314 316 315 315 315 314 314 314 314 314 314 315 313 314 317 316 316 315 315 317 317 319 320 317 318 316 315 319 315 312 311 312 320 322 315 312 312 318 327 325 323 326 324 324 326 323 324 323 316 313 316 317 319 321 320 319 319 320 317 317 321 318 316 319 319 318 317 317
309 309 311 315 318 319 319 319 319 319 319 316 312 312 313 313 315 316 316 317 318 316 315 317 316 314 314 314 315 313 314 317 314 314 316 315 316 316 315 318 317 318 321 317 316 317 318 319 315 314 314 313 318 321 319 319 317 318 322 324 325 325 326 331 328 321 321 320 314 311 316 319 320 321 320 319 317 316 314 313 315 316 315 317 317 317 317 316
309 308 309 312 317 319 318 318 318 319 318 313 312 313 313 314 316 316 316 315 317 317 316 317 315 313 314 316 317 314 313 316 315 315 316 315 317 317 317 318 314 319 325 319 315 317 318 318 317 317 316 315 316 317 321 323 317 317 320 321 324 326 329 333 330 325 324 323 318 313 317 324 326 324 319 314 311 312 312 314 315 316 317 315 314 315 316 316
308 309 309 310 315 318 318 318 318 319 316 312 312 314 313 314 316 317 316 313 317 320 317 315 315 315 315 317 317 314 313 315 314 315 317 316 318 317 316 317 313 317 323 317 316 317 315 319 320 315 313 315 316 314 317 320 317 317 319 320 322 324 322 320 321 322 322 323 322 318 320 326 325 322 317 312 312 313 311 311 312 315 317 315 314 316 316 317
309 310 310 310 312 315 317 318 317 317 315 312 313 313 313 314 315 316 316 312 316 320 316 316 318 317 316 316 317 314 313 315 315 316 317 316 317 316 315 316 314 314 316 314 318 320 317 320 318 312 312 313 313 313 314 316 317 317 317 319 319 316 318 320 316 314 314 319 323 321 323 326 323 321 320 318 320 319 314 312 311 314 317 314 314 318 317 317
310 311 311 310 310 312 315 317 317 316 315 312 313 313 313 314 314 315 315 313 314 317 316 317 318 318 317 316 317 316 314 316 316 316 317 316 317 318 315 316 314 313 314 312 317 321 319 321 317 313 316 312 308 312 312 309 314 320 320 319 316 314 320 324 322 321 321 322 324 322 322 325 324 323 323 320 320 321 319 316 311 311 314 313 316 319 318 317
310 311 311 310 309 311 313 316 316 315 314 313 313 313 312 312 313 313 313 312 314 316 317 318 317 317 318 317 317 316 314 316 316 316 317 315 317 318 315 317 315 312 313 311 315 319 318 319 318 313 315 313 309 314 316 310 310 317 319 316 317 322 324 322 322 327 327 324 327 325 319 320 321 323 325 321 324 330 325 319 317 315 312 313 317 319 318 318
310 311 312 311 309 310 311 314 315 314 313 313 312 313 311 311 311 312 312 312 314 317 316 316 316 317 318 317 317 316 314 316 316 315 317 316 316 316 314 316 316 312 312 311 315 320 317 316 319 312 311 314 313 316 320 317 311 312 314 313 317 322 323 322 321 323 325 326 327 326 322 323 322 322 325 321 323 332 330 326 328 320 312 314 318 319 318 318
310 311 312 311 310 310 310 312 314 313 313 313 312 312 312 311 311 311 312 312 313 316 316 316 317 317 318 317 317 317 316 315 315 315 316 315 316 316 314 314 316 314 312 311 313 318 317 315 318 315 311 314 318 317 317 318 315 314 317 316 317 317 318 322 320 319 325 327 327 326 323 324 325 322 324 322 321 326 329 332 329 318 313 317 319 318 319 319
309 309 311 311 311 310 310 312 314 313 313 314 313 312 311 312 312 311 312 312 312 314 313 316 318 317 317 317 316 317 316 315 315 315 316 315 315 318 315 313 315 316 313 313 314 316 317 317 319 319 315 316 320 317 314 316 317 316 317 318 317 317 318 320 319 317 320 322 325 326 322 322 326 322 319 321 322 320 320 321 319 314 315 319 319 318 319 319
307 308 310 311 311 311 311 313 313 312 313 314 314 313 312 312 312 312 311 311 312 312 312 315 318 317 317 318 317 317 317 316 316 315 316 316 315 317 316 312 312 314 314 315 315 314 317 321 320 320 319 318 317 312 308 311 316 316 316 317 317 316 318 321 321 320 320 319 320 321 322 322 322 319 317 317 316 313 310 309 311 314 317 319 319 318 319 318
306 307 309 310 311 311 312 313 313 312 313 314 313 313 312 312 312 312 312 311 312 312 312 314 315 315 316 317 317 317 317 317 317 315 316 317 315 314 313 312 312 313 314 316 316 313 316 320 319 318 322 322 317 313 308 309 314 315 316 317 317 316 318 322 324 321 321 322 320 319 322 321 316 315 313 308 307 308 308 308 310 314 318 319 319 319 318 318
304 306 306 308 310 312 312 313 313 312 312 313 313 313 313 312 312 312 312 312 312 312 313 313 313 314 315 316 317 317 318 318 318 317 316 317 317 314 312 312 313 314 315 316 316 314 316 320 319 318 321 322 319 318 315 312 313 316 318 318 317 317 318 319 320 319 320 323 321 320 323 320 317 318 313 309 312 312 310 310 310 312 317 319 318 318 318 319
303 304 305 305 307 310 311 311 312 312 312 312 312 313 313 313 312 312 312 312 311 312 313 313 313 313 314 316 316 316 317 317 318 318 317 318 317 313 311 312 313 313 314 314 314 314 317 319 318 317 319 319 318 320 320 317 314 316 320 318 316 317 318 318 318 319 320 321 320 320 321 319 319 321 319 319 321 319 314 312 311 313 317 318 318 318 318 318
303 304 305 306 305 306 308 309 311 312 311 312 312 312 313 314 313 312 312 312 311 312 312 313 313 313 315 316 316 316 317 316 317 319 318 318 318 314 311 312 313 313 314 314 313 316 320 320 317 317 318 318 317 319 320 320 317 317 318 317 315 316 316 317 318 319 320 320 319 319 319 320 320 320 322 322 321 324 320 313 311 315 317 317 317 318 318 318
302 303 305 307 307 306 307 308 310 311 311 311 312 312 313 313 314 313 312 312 312 312 312 313 313 314 315 315 315 316 316 316 317 318 318 318 317 316 312 311 312 313 313 313 313 317 322 320 318 318 318 317 318 319 319 319 319 318 318 316 315 315 315 317 318 319 319 319 320 320 318 319 319 318 323 324 323 326 322 312 312 317 318 317 317 317 317 318
301 302 303 306 307 308 307 307 308 310 310 311 311 312 312 313 314 314 313 312 313 313 313 314 314 314 314 315 315 315 316 316 316 317 317 317 316 317 316 313 312 312 313 313 313 317 321 319 318 320 319 318 318 319 319 320 319 319 318 316 316 315 315 316 317 317 319 319 320 319 320 320 318 317 321 322 319 320 318 315 316 317 317 317 317 316 317 318
300 301 302 304 305 306 306 305 306 308 309 310 311 311 312 313 313 314 314 313 313 313 313 314 314 314 314 314 315 315 315 316 316 316 316 316 316 318 318 317 314 311 312 315 314 316 319 318 318 320 319 319 318 318 320 320 318 317 317 316 316 315 314 315 316 316 317 318 319 319 320 320 318 318 320 318 315 314 314 315 316 315 316 317 317 317 317 317
300 300 301 303 303 303 304 304 304 307 308 309 310 311 311 312 313 313 313 314 314 313 313 314 314 314 314 314 314 315 315 315 316 316 316 316 317 317 317 319 318 313 312 315 315 314 315 318 319 318 318 319 318 317 319 319 318 318 317 316 315 315 315 315 316 316 316 317 317 317 319 319 316 318 319 316 314 314 313 313 314 315 316 316 315 316 316 316
299 299 300 302 302 303 304 304 304 306 307 307 309 310 311 312 312 312 313 313 313 314 313 313 314 314 314 314 314 314 314 315 315 315 315 316 316 315 316 316 318 317 314 314 316 315 314 317 319 318 318 319 318 318 318 317 317 317 317 317 316 315 315 314 315 316 316 317 317 317 318 318 316 318 317 315 314 314 312 312 314 315 315 314 314 314 315 315
299 299 300 301 301 302 304 304 304 305 306 307 308 308 310 311 311 311 312 312 312 313 313 313 313 314 314 314 314 314 313 314 314 314 314 315 314 314 315 314 314 317 317 315 315 316 315 317 318 317 319 319 319 320 319 316 317 318 317 317 316 314 315 315 315 315 315 316 317 317 317 317 316 318 318 317 318 317 314 313 313 314 314 314 314 314 315 315
Wind_Speed
14 13 13 12 11 11 10 10 9 9 9 9 9 9 10 10 10 9 9 9 9 9 9 8 6 5 3 3 3 2 2 2 2 3 3 3 4 4 4 4 3 2 2 3 3 3 2 2 1 0 1 3 5 5 6 5 4 3 3 4 3 4 4 6 8 8 4 3 7 10 12 8 5 9 9 5 5 7 10 12 11 13 16 13 11 9 11 16
14 13 12 12 11 11 10 10 9 9 9 9 9 10 10 10 10 9 9 9 9 9 9 7 6 4 3 3 3 2 3 2 2 3 4 4 6 5 4 3 3 2 2 3 3 4 2 2 1 0 1 4 5 4 4 4 5 3 3 4 3 6 4 5 9 9 3 2 8 11 10 9 7 11 11 4 4 6 7 10 12 13 15 15 14 12 12 16
14 13 12 12 11 10 9 9 8 8 8 9 9 10 10 10 10 10 9 9 9 10 9 7 5 5 4 3 3 2 3 3 3 3 4 4 5 6 5 3 1 1 1 2 2 2 2 1 0 1 3 5 5 5 5 5 4 2 4 3 4 7 3 4 7 9 5 1 8 12 9 8 7 11 11 5 4 4 7 11 13 15 16 15 15 14 14 17
15 14 13 11 10 9 8 8 7 8 8 8 9 9 9 9 10 10 10 9 10 10 8 7 5 5 4 3 3 2 3 3 2 2 1 3 6 8 6 4 3 2 2 2 2 2 1 1 1 2 4 5 5 5 4 5 2 1 4 3 4 5 1 3 5 7 7 4 8 12 8 6 7 10 10 7 4 4 13 18 18 17 15 13 16 16 15 17
16 14 13 11 10 8 8 8 7 7 7 7 8 8 9 9 9 10 10 10 10 9 8 6 5 5 4 4 3 2 0 2 3 3 2 6 9 9 8 6 5 4 4 4 2 2 1 1 2 2 4 3 5 4 3 5 4 3 2 2 4 5 1 1 2 5 8 6 9 11 8 6 8 8 10 11 7 7 13 18 19 18 13 11 14 16 16 17
15 14 12 11 10 10 9 8 8 7 7 7 7 7 7 8 8 9 9 10 10 9 8 6 5 5 4 4 4 3 2 1 4 5 5 7 9 9 8 5 4 3 4 5 4 2 2 1 2 2 4 3 4 4 3 4 2 2 2 1 5 4 1 1 2 4 7 9 12 11 7 7 8 6 9 14 16 14 11 10 12 15 15 13 14 16 17 17
12 12 11 11 11 11 10 9 9 8 7 7 7 7 6 7 7 8 9 9 9 8 7 6 5 5 5 5 4 4 4 2 5 6 6 8 8 9 8 4 2 1 3 5 5 3 2 1 3 4 5 3 2 2 4 4 3 4 1 1 4 3 1 2 3 5 6 7 11 9 6 6 8 6 5 15 23 21 16 12 10 12 14 16 16 17 18 17
12 11 10 10 10 10 10 9 9 8 8 7 7 7 7 7 7 7 8 8 8 8 7 7 6 6 5 5 4 4 6 5 6 6 6 8 7 8 8 5 4 5 5 5 5 2 1 2 5 5 4 3 2 1 4 4 5 5 2 2 3 2 2 4 4 6 5 4 7 6 6 4 7 7 6 17 23 19 20 20 17 15 14 17 19 18 18 19
12 12 11 11 11 10 9 9 9 8 8 7 7 7 7 7 8 8 8 8 8 8 7 7 7 6 6 6 4 4 5 6 8 7 7 7 6 6 7 5 5 6 5 4 3 1 1 2 4 3 3 3 4 3 4 3 2 3 3 3 2 1 0 4 4 5 4 4 5 5 4 3 4 4 10 22 23 20 20 20 20 20 17 17 18 19 19 19
12 11 11 11 10 10 10 9 9 8 8 7 7 7 7 8 7 7 7 8 8 7 7 7 7 7 7 6 4 3 5 7 9 8 7 7 6 5 5 5 5 4 3 2 1 2 2 3 3 5 6 5 5 4 5 4 2 2 4 3 2 1 1 3 5 4 4 4 5 5 4 3 3 1 8 16 15 17 20 19 20 20 19 18 18 19 20 20
11 10 10 10 10 10 10 9 9 9 8 8 8 7 8 8 7 7 7 7 8 7 8 8 8 8 7 6 5 4 3 6 11 10 8 7 6 5 5 4 3 2 1 1 2 3 3 3 4 5 4 3 4 4 5 4 4 3 3 1 2 4 3 4 5 5 5 3 5 5 2 4 0 2 12 14 10 13 15 17 19 19 20 19 19 20 21 22
10 10 10 10 10 10 9 9 9 9 9 9 8 8 8 8 8 8 8 8 8 8 9 9 8 8 8 8 10 9 4 5 11 11 9 8 7 6 5 4 2 1 1 1 2 2 3 3 3 2 3 6 4 3 5 4 4 4 4 0 5 8 4 3 3 5 5 2 3 3 2 5 3 10 18 14 12 14 14 16 18 19 20 19 20 21 22 23
11 10 10 10 9 9 9 9 9 8 9 9 9 9 9 9 9 9 9 9 9 9 9 9 9 9 8 8 10 10 8 6 10 12 11 9 8 6 5 4 2 1 2 2 3 3 3 3 3 3 6 6 3 4 4 4 3 2 4 2 3 8 5 3 1 3 6 2 3 6 2 7 7 17 20 13 12 14 15 18 19 19 20 20 21 22 23 23
11 11 11 10 10 10 9 8 8 8 8 8 8 8 8 8 8 9 10 10 10 9 9 9 9 8 8 8 8 9 9 8 10 12 12 11 9 7 5 4 3 2 2 2 3 3 4 4 4 5 6 5 6 7 4 5 4 1 1 2 2 2 4 5 1 5 5 3 6 7 3 7 8 14 13 13 15 14 17 19 18 20 20 21 23 23 25 24
12 12 12 11 11 10 10 9 8 8 8 8 8 7 7 7 7 7 8 9 9 9 9 8 8 7 6 8 9 9 10 11 12 13 13 12 10 7 6 5 4 4 3 2 2 3 4 4 4 5 6 6 7 6 3 4 4 3 1 3 3 1 5 8 2 8 5 2 7 6 2 7 9 12 9 11 15 15 19 20 19 21 21 22 24 25 26 26
13 13 13 13 12 12 11 10 9 9 8 8 8 7 6 6 5 5 6 7 8 8 7 7 7 6 4 5 8 9 11 13 14 15 14 14 12 8 6 5 5 5 4 3 2 2 2 2 4 5 5 5 5 5 4 3 4 4 1 3 2 2 3 6 2 5 2 2 4 3 3 4 5 6 4 6 13 15 18 20 20 21 22 23 25 26 27 27
13 13 14 14 13 13 12 11 11 10 10 9 9 8 7 6 5 5 5 6 6 7 6 5 5 5 6 6 7 9 12 13 14 15 15 14 12 9 7 6 5 5 5 4 3 2 1 1 4 3 3 3 3 5 4 2 4 4 2 1 4 2 2 3 3 3 1 3 3 3 3 7 7 6 6 5 8 13 17 21 21 21 23 24 25 27 28 29
11 12 13 14 15 14 14 13 12 12 11 10 10 9 8 7 6 5 5 6 5 4 4 6 5 1 6 10 9 8 9 11 13 14 15 15 14 10 8 6 5 5 4 3 3 2 1 2 4 1 3 3 2 5 3 5 4 3 3 2 3 2 2 3 4 2 2 2 3 3 4 12 13 13 17 15 11 14 19 23 23 24 25 25 26 28 29 31
8 10 11 13 14 15 16 15 14 13 12 12 11 10 9 8 6 6 6 6 6 4 2 8 10 4 1 7 11 10 8 8 10 13 16 16 14 12 9 6 5 5 4 3 1 1 2 3 4 1 1 2 4 7 7 8 6 6 6 4 4 3 3 5 5 4 3 1 4 6 7 11 12 13 16 16 13 17 22 25 27 28 29 29 29 31 31 33
5 7 9 10 12 15 16 16 16 15 14 13 12 11 8 5 2 4 8 10 11 10 5 5 11 9 2 1 6 10 8 8 10 13 16 16 14 12 8 6 4 3 3 3 2 1 3 2 2 5 7 8 9 8 5 5 6 6 5 4 3 4 4 5 4 5 1 3 6 7 7 11 12 12 14 15 11 14 21 24 29 32 32 33 33 35 36 36
5 6 7 8 10 12 14 16 16 16 16 14 13 11 7 7 3 2 5 8 12 15 14 11 10 13 10 6 5 7 8 8 10 13 14 15 14 10 8 6 5 2 0 3 3 2 4 3 7 9 7 7 6 5 6 6 5 5 5 2 2 3 5 6 3 4 0 3 5 4 4 11 13 12 16 14 7 13 23 25 30 34 34 35 36 38 39 38
8 7 7 8 9 10 12 13 14 15 16 15 15 13 10 11 10 7 5 5 9 13 16 19 18 17 16 14 11 8 8 7 9 14 14 16 15 10 8 7 5 3 1 4 4 2 2 4 11 8 6 6 4 5 7 6 5 4 3 2 2 3 4 6 3 4 1 4 4 5 4 10 13 12 14 17 15 20 29 30 32 34 32 35 37 39 40 39
12 9 8 9 9 11 12 12 12 13 14 15 15 15 14 13 12 11 6 4 9 13 15 19 21 22 22 19 16 13 12 8 8 15 17 17 16 12 10 8 4 4 2 3 6 3 2 6 10 6 10 8 4 4 7 5 3 2 3 3 3 3 1 4 4 4 1 1 2 3 5 8 12 11 11 19 22 24 31 33 35 35 34 38 40 39 39 39
14 12 11 10 10 12 14 13 13 11 12 14 15 15 15 14 11 9 5 2 6 10 14 17 18 21 24 21 19 17 15 12 10 14 19 20 17 11 9 8 5 4 4 6 7 5 6 6 2 5 8 7 5 4 6 5 3 3 5 6 4 4 6 6 4 4 3 3 2 2 6 6 8 9 8 11 11 16 25 28 32 37 37 40 41 39 40 41
16 15 13 12 12 13 15 17 13 9 11 13 13 15 15 14 11 6 2 1 4 5 9 14 16 19 23 21 20 17 13 14 14 15 19 24 21 11 6 7 6 4 5 5 5 4 8 5 3 6 3 5 7 4 5 7 3 4 5 9 10 8 7 4 3 5 4 5 3 1 3 5 5 6 8 6 5 9 15 16 24 32 32 33 35 36 38 38
20 18 16 15 14 14 16 16 11 9 10 9 9 14 16 13 10 7 3 3 4 4 3 8 9 11 15 18 21 16 6 10 16 18 19 24 23 13 6 5 4 3 6 5 3 3 4 2 4 6 5 5 5 3 6 7 5 3 5 8 10 7 4 2 2 2 1 4 3 2 2 5 7 8 9 5 6 10 11 11 19 29 30 30 33 34 35 35
23 22 20 18 17 19 18 15 12 11 9 7 9 13 14 12 10 7 4 4 4 5 6 8 8 8 10 14 23 18 3 5 12 16 22 24 22 15 7 5 3 2 5 5 1 3 4 3 3 5 5 5 5 4 6 8 7 3 4 5 6 6 5 5 5 3 3 3 4 1 3 3 6 9 7 3 6 10 10 12 16 25 32 32 32 33 32 31
22 23 23 22 22 22 21 18 16 12 8 6 8 13 14 14 12 8 5 1 3 5 6 6 8 10 10 15 25 16 4 8 8 12 24 25 21 12 6 8 7 6 7 7 4 3 4 6 6 6 5 4 6 5 7 11 5 4 3 6 6 6 5 4 6 3 1 4 5 3 3 2 6 7 6 2 5 9 11 13 14 20 28 28 26 24 21 21
19 20 21 23 23 23 23 23 20 14 10 7 6 14 18 17 13 7 4 2 2 3 4 6 8 8 11 16 19 10 6 6 2 10 22 22 19 9 3 9 9 6 6 5 4 2 1 3 6 7 5 5 5 2 7 10 4 4 6 7 6 6 5 5 5 3 4 3 9 6 5 3 5 5 5 3 4 8 10 11 12 18 24 22 18 14 10 10
17 18 20 18 19 23 25 26 23 17 13 8 9 18 22 18 10 5 2 3 1 1 3 7 7 8 14 13 6 3 4 2 4 13 14 12 15 7 4 8 6 5 1 4 2 3 1 1 2 4 4 5 5 3 1 4 5 8 7 6 6 6 5 4 3 4 3 4 10 6 10 7 5 4 6 6 5 7 8 8 9 14 19 17 11 8 6 7
15 17 19 18 20 25 27 28 26 22 17 10 14 24 21 10 4 3 6 1 1 2 4 4 3 7 15 11 4 4 2 2 6 13 8 5 8 5 5 6 3 4 2 5 4 3 3 1 1 3 4 5 8 5 4 4 6 6 4 5 4 4 4 4 4 3 1 6 6 2 6 8 6 6 6 8 7 6 7 8 8 10 17 18 10 6 7 9
16 16 17 19 22 24 27 30 26 24 21 14 18 22 12 3 2 5 6 2 1 4 5 4 4 6 11 8 4 6 4 2 6 8 5 5 6 6 6 6 5 3 2 7 4 3 2 4 3 1 4 7 6 5 4 4 3 4 4 6 4 2 3 3 3 1 3 7 4 2 1 3 7 8 9 12 13 11 11 12 13 15 22 24 18 14 14 14
17 17 16 18 20 21 25 27 25 25 22 17 21 17 3 2 6 8 8 4 1 2 2 2 3 5 10 7 3 5 4 2 6 5 2 4 5 7 6 5 7 4 2 6 3 1 3 6 2 1 3 8 9 6 3 1 2 5 5 6 4 2 1 3 4 1 4 6 3 2 1 3 5 6 11 16 18 16 16 21 24 24 28 29 25 23 23 22
17 18 17 17 17 18 21 24 25 26 23 23 22 12 3 3 6 8 11 8 2 2 2 3 5 5 8 5 3 6 4 3 6 5 2 5 5 6 6 7 7 2 3 4 3 6 5 6 6 6 4 11 13 8 6 6 5 5 4 5 5 5 5 4 4 3 4 4 4 3 2 3 4 3 8 13 16 18 20 26 29 31 34 30 27 28 28 27
17 17 18 19 19 17 18 22 26 27 26 29 17 6 6 7 5 6 8 6 1 2 3 3 6 5 4 2 3 5 4 2 5 5 3 6 6 7 7 8 9 5 5 4 2 4 6 7 7 2 3 13 12 6 7 8 3 2 3 4 3 5 5 1 3 5 2 2 4 2 4 5 4 6 9 9 12 14 17 21 21 29 34 27 26 29 28 27
16 17 19 20 22 21 19 22 27 29 30 27 9 3 9 7 3 4 4 3 3 4 4 3 4 4 4 2 2 4 2 1 5 4 3 4 4 6 7 7 12 11 8 8 3 2 4 6 5 2 1 6 5 3 5 4 4 2 3 4 4 4 6 3 2 1 4 2 4 2 5 5 3 7 10 8 9 12 12 12 15 25 28 23 26 29 27 26
13 15 19 22 24 23 20 22 26 29 31 20 5 5 7 4 3 3 1 3 5 7 6 2 2 5 5 3 3 6 2 1 4 4 4 3 3 6 7 7 11 16 16 11 4 2 5 4 5 1 2 3 1 4 4 3 4 5 4 6 2 1 3 3 2 3 3 3 5 2 5 5 2 5 6 3 7 12 12 10 13 21 23 23 27 27 24 24
10 13 20 24 24 22 22 21 23 30 27 11 4 7 4 4 8 6 2 2 5 6 5 5 4 4 6 6 4 5 5 3 5 5 4 3 4 8 10 6 8 18 22 14 3 2 4 3 5 1 2 3 3 4 2 4 3 5 4 5 4 2 2 2 2 2 1 3 4 4 5 4 5 5 4 4 9 12 11 9 9 13 18 21 23 20 19 20
11 10 17 22 21 21 22 20 23 30 19 4 5 7 4 7 11 10 7 2 1 5 5 5 4 2 3 6 4 4 6 6 7 6 4 4 5 7 13 11 8 15 23 17 6 2 3 3 4 1 1 1 3 2 5 2 2 3 2 3 3 2 4 3 3 3 3 3 3 4 5 4 7 7 7 11 12 10 9 7 6 12 16 17 16 13 14 16
12 7 11 16 16 16 21 22 24 22 9 3 7 6 5 7 9 14 18 10 2 3 5 5 5 4 4 5 3 4 6 6 7 7 5 6 5 4 10 13 5 5 14 16 8 1 2 4 4 2 2 1 2 5 9 10 7 4 4 5 3 1 1 1 1 2 4 3 2 2 6 8 6 5 9 13 11 10 10 7 7 12 13 11 10 10 11 14
12 6 7 11 11 13 22 21 16 11 5 5 7 5 5 5 4 13 22 16 7 4 4 4 5 5 5 5 4 4 5 5 6 6 3 5 7 5 8 15 11 7 7 8 7 6 3 4 4 2 1 4 5 4 5 9 10 8 8 9 9 7 4 3 3 1 2 2 4 3 7 12 6 5 8 10 8 8 9 8 8 12 10 6 7 8 9 12
12 8 5 7 9 17 25 16 7 7 5 7 12 10 7 4 3 9 15 15 11 7 3 3 4 5 4 5 5 5 5 4 5 6 4 7 10 7 7 15 19 18 13 6 10 11 5 3 4 3 4 6 5 2 1 4 4 3 4 6 7 7 6 6 6 3 2 2 2 4 4 12 5 3 6 6 5 5 7 8 11 12 8 4 7 7 8 11
12 11 9 9 15 25 23 8 4 7 5 11 18 14 8 5 4 7 10 12 11 8 6 4 3 6 6 3 4 5 6 5 5 7 6 6 10 10 7 12 17 16 11 4 6 7 3 2 3 3 2 3 4 4 2 1 2 2 4 3 4 6 6 5 5 4 4 4 3 4 4 10 4 1 3 4 4 5 8 11 14 13 8 6 8 6 6 10
14 16 14 13 21 29 20 6 5 7 8 12 13 10 10 10 7 8 9 11 11 7 6 6 4 7 7 3 4 6 7 6 5 8 9 5 6 9 11 16 16 11 9 6 6 9 7 3 5 5 3 3 3 2 2 1 1 3 4 4 6 8 7 4 2 3 2 7 9 6 8 10 2 3 3 3 3 6 8 11 14 13 11 10 8 4 5 11
10 13 15 19 26 25 15 10 11 8 9 13 10 9 11 9 9 15 14 11 13 9 5 7 8 7 4 3 4 6 8 9 6 7 9 7 4 4 12 22 19 13 14 11 6 10 9 5 7 8 7 8 8 6 5 4 2 1 3 6 8 10 11 7 3 3 5 9 9 7 11 10 2 4 5 4 4 6 8 10 12 13 14 15 10 5 7 14
4 5 7 14 25 26 19 17 15 7 7 11 9 9 13 9 9 18 17 11 14 14 9 7 8 7 5 6 7 7 8 11 9 6 6 8 6 1 8 20 22 21 23 15 5 7 4 2 9 13 12 13 14 10 4 7 7 7 9 10 10 11 13 10 5 6 10 7 5 9 16 15 9 4 5 7 5 6 8 8 10 14 16 18 14 10 12 17
5 4 5 6 11 17 17 18 15 8 8 11 6 5 13 14 8 11 15 13 15 18 12 7 7 9 8 10 10 9 10 10 9 8 7 8 5 2 3 12 18 24 25 15 9 8 2 3 9 13 15 16 17 13 7 9 11 15 15 13 13 13 13 12 12 14 12 5 8 15 15 16 20 11 7 9 8 7 7 7 12 16 17 18 17 15 15 18
9 6 10 9 4 5 9 12 12 10 11 12 8 6 11 15 11 9 11 12 16 18 12 7 10 13 13 15 11 9 11 10 9 11 11 8 4 1 1 3 8 16 15 9 8 8 3 5 8 10 12 15 17 12 8 8 10 13 16 17 17 16 16 17 20 21 15 9 13 19 12 13 22 14 10 12 10 9 11 13 17 18 18 20 20 20 20 23
13 9 11 13 7 3 6 8 6 7 11 12 10 10 11 13 15 13 9 7 9 14 14 11 14 17 17 16 12 10 11 10 10 12 11 10 6 3 4 4 5 8 8 5 5 5 4 7 9 10 11 14 19 13 7 8 7 6 12 16 17 19 20 22 23 23 19 14 17 20 13 15 20 13 10 14 17 19 19 19 19 20 22 25 25 26 27 28
17 12 10 9 7 8 13 11 5 2 7 10 9 11 12 13 14 12 10 10 8 9 13 17 18 17 16 15 13 13 14 13 14 15 11 9 8 5 6 5 2 3 5 5 3 3 5 7 8 8 7 12 20 16 8 9 8 7 9 11 15 19 22 23 21 18 15 15 18 20 17 18 16 7 8 13 17 18 16 16 21 25 27 26 26 27 29 29
24 18 12 5 3 6 9 8 5 3 4 5 5 6 10 13 15 11 10 16 17 11 11 17 19 15 14 16 16 16 18 18 18 18 13 12 14 11 9 8 7 5 5 6 4 3 5 4 2 4 6 12 17 13 9 9 8 7 9 12 18 20 18 17 16 14 14 16 18 17 15 17 12 5 6 11 12 11 13 17 24 28 28 25 24 25 27 28
29 24 18 8 3 6 6 2 3 5 5 5 6 7 8 10 12 11 10 13 20 21 18 19 18 14 12 14 18 24 32 31 26 23 18 15 17 15 13 13 13 9 7 6 4 4 6 5 3 4 7 11 11 7 8 6 5 8 14 19 21 17 11 10 12 16 18 16 13 12 14 19 15 6 7 9 8 10 17 22 25 27 25 23 23 25 28 29
Wind_Direction
206 207 206 206 206 207 208 209 212 213 212 210 208 206 204 202 202 202 201 199 199 200 200 206 219 228 231 237 248 257 244 246 292 303 297 260 235 240 262 256 245 252 262 265 256 253 277 332 318 165 128 101 88 85 86 81 85 92 97 94 151 176 192 190 177 188 165 182 200 186 182 165 157 176 176 178 191 204 202 204 209 217 223 230 247 248 228 214
209 210 209 210 211 213 215 217 218 216 214 210 208 206 203 202 203 202 201 201 200 200 200 208 220 227 235 242 250 261 253 261 286 297 288 256 236 233 236 218 225 267 284 292 278 267 276 304 309 158 145 107 78 79 91 62 63 78 102 99 198 193 205 196 177 190 167 110 181 178 182 180 174 174 171 177 199 193 207 219 221 229 230 231 242 238 224 214
209 210 211 213 216 220 223 225 223 219 216 212 210 206 204 203 203 202 200 202 200 198 202 211 223 230 240 245 254 264 269 273 274 296 283 247 218 197 186 179 171 334 308 327 307 287 271 261 275 115 110 98 68 81 87 51 60 71 95 97 235 211 226 213 189 201 204 152 164 171 181 187 184 176 177 185 187 198 221 221 222 231 232 230 234 231 224 216
206 208 209 212 218 224 227 228 223 219 219 215 212 208 207 206 204 203 202 203 199 199 205 214 224 231 244 248 261 265 288 295 238 253 268 188 170 165 155 140 111 81 50 12 354 348 311 195 166 110 94 83 50 74 63 32 60 75 103 154 222 186 186 221 212 218 214 209 173 170 167 185 193 183 188 175 150 247 237 226 227 236 239 235 232 229 227 223
203 204 204 207 211 216 218 219 217 215 214 213 212 211 210 209 206 204 204 202 198 201 209 219 227 234 248 250 264 246 331 18 189 179 142 155 154 153 145 131 114 90 58 28 16 33 76 132 138 104 82 66 34 59 33 27 83 79 50 226 172 139 128 216 208 201 198 192 172 165 158 185 188 190 204 187 182 236 240 238 238 242 248 245 240 235 232 230
203 202 201 202 202 203 205 205 207 208 207 204 205 209 211 210 209 206 204 200 200 207 216 223 228 236 248 249 265 235 202 44 179 169 147 158 158 157 154 146 129 92 40 23 23 54 82 97 132 99 71 59 28 60 46 21 88 97 355 258 165 154 78 148 166 166 175 176 169 167 176 186 178 204 224 211 222 235 240 250 242 243 244 242 243 239 238 236
205 203 200 200 198 197 198 196 197 199 199 196 194 198 204 206 206 205 202 199 205 214 220 227 231 238 247 249 262 238 239 246 179 169 162 165 166 169 172 181 196 275 335 355 6 45 79 60 114 102 81 73 55 73 40 24 67 103 106 213 183 214 280 155 158 153 156 173 175 174 187 192 190 211 240 232 239 241 244 249 243 248 244 241 242 239 241 241
203 200 198 197 197 196 195 194 195 195 193 191 191 192 193 198 200 201 201 203 211 218 223 227 232 239 246 250 260 252 249 234 187 175 170 171 176 182 192 215 245 277 300 322 352 49 88 74 110 107 90 81 107 85 27 42 48 63 134 201 176 210 230 176 166 162 160 175 181 185 195 206 214 222 254 248 248 247 247 250 250 254 250 245 243 242 242 239
201 197 197 196 195 194 194 193 194 195 193 191 193 192 194 196 198 199 202 209 215 221 225 229 236 242 247 249 259 265 246 216 193 186 176 178 183 190 206 231 256 272 289 305 340 49 124 117 119 118 131 128 105 64 33 66 14 34 126 156 146 78 192 187 193 180 184 192 185 201 218 230 231 247 263 254 252 253 251 253 253 255 254 250 246 243 242 240
202 198 198 199 198 197 197 194 194 195 193 195 197 195 198 200 202 202 206 214 220 226 231 236 240 242 247 249 241 239 233 205 190 188 182 184 188 196 217 238 263 273 285 288 22 68 117 133 129 125 124 123 101 56 33 69 106 76 100 114 109 24 308 224 222 217 215 218 207 211 231 258 228 196 257 254 252 251 250 252 252 253 252 250 247 244 241 240
204 203 203 205 206 205 204 202 201 199 198 200 201 202 204 204 205 207 212 219 225 232 237 243 247 248 251 249 227 214 229 208 194 190 185 185 192 205 220 232 256 269 262 208 102 81 114 125 131 137 122 120 107 65 56 79 104 70 57 129 354 351 305 246 234 232 217 233 241 218 255 289 175 186 245 250 252 252 250 250 252 250 249 248 245 243 240 240
209 212 214 215 217 216 213 212 210 208 207 206 206 210 212 212 212 213 219 223 229 235 240 245 249 251 253 255 245 237 257 224 197 193 191 188 194 207 216 216 228 238 206 147 110 94 122 130 135 154 128 136 132 76 83 84 92 66 56 218 317 356 346 260 244 225 199 220 238 170 308 288 219 230 244 251 252 252 250 248 250 248 247 244 242 242 240 240
216 219 222 224 227 228 226 221 218 216 215 214 213 214 217 221 223 223 225 227 232 236 241 246 248 252 255 258 255 246 250 233 202 198 197 194 200 210 210 201 204 192 174 139 110 107 125 132 129 135 128 131 131 114 117 73 72 70 55 83 333 1 341 289 23 192 180 184 165 138 270 272 245 244 245 251 251 246 245 245 246 246 245 243 241 241 240 239
224 226 228 229 232 235 235 232 227 222 220 219 217 217 219 223 228 232 233 234 235 237 241 245 248 252 251 250 256 250 241 228 210 206 203 201 205 211 209 202 205 194 183 142 107 109 116 112 115 124 117 113 123 123 98 28 42 21 10 42 30 17 284 294 25 154 155 194 171 138 256 266 266 264 255 249 246 242 245 247 248 247 246 245 243 242 243 241
229 233 233 233 235 236 238 238 236 233 229 229 227 223 223 222 228 235 239 241 239 240 242 245 249 248 255 254 251 248 238 228 220 214 209 207 208 212 211 208 206 199 195 178 134 117 113 116 116 104 100 108 119 110 33 3 22 28 347 313 352 156 266 306 263 164 144 193 169 142 255 270 272 276 273 246 236 236 243 250 251 250 250 248 247 246 246 245
231 235 238 239 238 238 240 240 240 240 239 241 241 237 236 233 236 243 249 248 243 244 242 245 245 233 252 261 242 241 237 228 224 218 214 210 210 214 212 215 213 202 200 203 199 157 140 127 100 86 101 117 109 87 46 12 345 1 62 244 272 169 269 317 292 194 149 106 174 186 247 276 282 280 289 230 227 231 240 251 253 252 255 252 251 250 251 250
230 234 239 243 243 242 241 241 242 242 244 246 247 248 250 249 251 256 258 254 247 243 238 236 237 231 248 253 237 237 233 227 223 218 214 210 212 218 218 218 210 204 205 209 222 215 223 127 114 93 72 77 84 91 66 334 292 316 12 233 240 200 208 297 313 257 134 100 210 225 236 255 266 274 280 260 239 234 238 252 257 256 257 255 255 254 253 253
228 233 238 242 245 246 244 244 243 243 246 248 251 253 254 259 264 268 265 257 243 232 236 222 198 203 249 237 226 230 230 227 224 217 213 211 214 221 221 216 206 202 195 198 223 210 177 86 101 79 24 28 64 106 141 223 208 201 190 195 249 237 212 253 288 246 142 84 228 212 247 260 267 272 271 270 258 242 246 257 260 260 259 258 257 255 255 254
227 233 238 241 245 247 246 245 243 244 247 247 251 253 257 263 268 270 260 243 213 179 207 211 190 159 259 227 222 228 232 225 221 216 212 212 215 218 214 207 195 177 151 156 218 119 116 81 77 93 233 207 192 169 188 200 164 158 170 154 175 213 249 238 251 258 183 150 240 222 236 257 265 271 272 271 256 244 254 260 260 260 259 257 256 256 255 254
231 237 239 242 244 245 246 245 243 244 246 248 249 248 248 239 259 280 248 234 226 216 219 211 201 211 259 318 224 226 226 219 216 213 209 210 211 208 200 186 166 139 125 154 183 87 99 110 175 219 214 201 201 189 168 148 126 120 125 128 171 197 268 254 250 289 205 166 252 236 234 260 264 266 272 273 258 242 250 255 258 260 259 258 257 257 257 257
239 243 246 247 246 246 245 245 243 242 243 245 243 240 228 202 187 267 236 242 249 238 239 244 229 227 243 269 250 223 215 212 211 208 206 205 200 194 189 170 132 123 223 128 119 83 95 155 230 230 208 193 188 155 124 111 96 88 118 158 250 208 252 253 237 303 302 169 270 293 271 267 265 265 270 269 244 239 247 249 254 258 260 260 260 261 261 261
244 245 255 259 258 254 248 245 244 240 239 239 235 234 231 227 228 236 246 276 271 255 248 247 245 241 242 248 249 231 209 203 206 205 201 195 191 189 179 155 128 159 192 98 101 47 72 227 246 226 145 116 100 118 127 119 98 83 114 141 267 246 272 281 289 329 9 179 271 338 315 272 269 266 264 259 244 249 255 253 257 260 260 261 262 263 265 265
244 244 252 263 270 269 262 252 244 240 236 233 231 230 233 238 237 239 255 294 279 268 256 249 248 246 241 240 244 234 213 211 210 201 198 192 188 186 172 149 125 137 137 161 159 139 164 248 258 199 144 120 80 101 117 110 113 133 140 152 239 248 273 281 295 327 344 189 269 325 312 281 274 272 260 255 250 255 261 260 263 263 261 263 264 265 266 266
240 243 250 263 269 272 273 263 251 245 236 230 227 224 227 233 232 237 248 289 291 271 256 251 248 246 242 238 239 230 218 225 224 203 199 192 179 175 179 158 124 131 182 193 172 176 221 252 271 132 147 141 113 117 132 144 232 240 189 188 214 224 216 231 290 325 332 354 7 326 309 287 274 276 270 269 265 262 264 264 265 264 262 264 265 265 265 265
231 236 244 254 261 268 271 267 264 257 240 233 226 218 219 220 218 222 220 322 297 274 261 247 240 244 239 233 229 219 216 231 232 216 204 197 185 167 165 162 146 180 205 178 156 221 251 247 122 107 121 136 129 155 178 167 204 279 231 203 211 219 224 237 359 7 360 338 331 21 301 283 298 286 264 285 313 277 267 261 263 266 266 265 264 266 267 267
231 233 234 238 248 255 257 260 267 266 251 239 224 213 212 207 198 197 153 49 298 250 222 215 219 234 225 218 209 196 219 244 226 218 205 200 197 177 148 152 142 195 186 153 154 237 244 204 113 120 139 146 146 201 220 174 148 283 251 205 209 208 205 210 115 66 316 268 286 79 200 267 309 294 265 268 276 268 271 264 263 268 269 266 266 270 271 271
232 234 232 231 237 240 243 250 256 259 256 241 221 204 199 190 175 173 135 23 286 196 156 182 187 193 203 201 189 180 212 214 195 206 197 193 197 187 175 165 120 177 161 132 225 249 176 157 96 112 121 134 164 219 222 166 139 240 252 166 169 174 189 195 153 170 238 269 300 73 150 254 294 285 279 282 275 276 275 272 269 268 268 268 271 275 277 276
231 230 230 229 235 240 245 251 254 256 254 246 219 192 179 170 162 147 115 347 258 147 145 180 174 183 188 181 182 177 144 142 148 195 191 186 192 188 192 189 165 177 170 151 213 259 150 176 190 163 137 163 193 220 189 157 148 246 221 119 133 151 162 140 127 179 325 3 289 238 132 233 263 275 299 313 276 279 269 265 266 265 269 274 279 284 287 284
236 232 230 229 235 242 243 244 246 248 244 237 199 178 166 157 151 118 91 223 209 126 151 169 164 174 158 161 183 182 136 142 124 178 180 182 187 180 186 193 168 157 183 185 212 256 92 185 200 163 156 199 207 248 180 166 176 191 132 94 81 79 82 87 111 132 55 346 260 228 146 215 264 266 284 296 259 259 261 262 263 267 273 280 289 297 298 293
241 240 238 234 236 238 237 236 236 236 235 227 184 169 158 153 143 110 163 220 206 136 136 157 173 167 147 147 195 208 142 131 111 145 161 176 182 167 118 159 145 120 174 312 267 248 343 60 186 173 184 180 132 69 118 143 140 139 112 68 51 38 45 53 62 87 75 274 267 227 167 188 267 264 240 244 232 222 238 261 269 272 276 278 285 295 295 302
237 237 237 235 235 236 232 231 233 231 227 217 178 165 156 147 117 156 197 220 2 169 132 154 182 153 154 157 185 194 138 49 138 145 146 162 172 154 115 139 118 79 11 305 282 304 337 80 233 217 189 134 101 68 34 63 111 115 87 80 67 350 11 25 357 53 137 250 280 301 165 179 230 252 239 250 254 230 224 249 266 273 274 274 271 266 281 297
237 235 234 231 234 240 235 234 238 229 220 207 175 165 158 152 162 204 201 81 14 197 160 180 190 165 169 167 172 174 131 102 171 163 156 154 168 183 182 180 163 111 278 240 244 338 276 231 266 295 191 164 122 76 41 26 57 89 97 109 95 332 357 347 296 120 221 251 280 357 106 190 231 250 255 259 261 246 230 238 248 258 267 271 271 270 277 284
237 236 236 229 233 242 240 240 241 228 216 196 172 163 139 195 193 210 201 166 206 220 143 141 137 145 157 156 185 171 129 175 185 175 161 147 173 206 232 226 184 159 200 200 199 259 270 291 278 149 223 192 165 152 162 197 176 157 149 141 139 147 163 258 262 270 263 268 282 256 239 255 259 258 244 243 250 249 245 250 254 260 266 269 273 275 278 280
236 237 235 229 232 240 242 240 237 232 213 180 165 153 123 208 206 208 208 208 235 23 41 79 89 114 152 165 211 171 151 223 178 150 125 137 166 213 237 239 213 158 100 152 175 183 218 280 213 180 189 182 183 191 167 138 158 184 156 138 160 167 174 216 222 222 255 282 302 285 241 201 202 253 239 236 257 265 257 254 256 260 265 270 276 277 279 281
237 238 233 228 226 229 240 238 236 236 207 172 160 153 173 198 212 204 213 219 219 37 18 51 91 117 185 260 291 187 177 229 170 139 153 167 186 204 201 211 204 168 136 179 221 170 203 260 240 223 150 165 180 191 129 110 144 213 114 120 198 193 162 187 206 178 182 307 305 254 231 215 205 277 273 249 265 272 261 259 258 257 260 269 276 277 280 283
241 239 235 232 224 221 230 233 234 229 197 169 157 207 192 206 203 176 202 194 165 120 96 59 77 121 201 246 273 223 218 98 152 151 190 201 220 208 200 211 198 188 183 187 195 142 182 269 287 358 96 166 179 167 133 138 178 161 140 179 218 181 133 117 253 68 75 270 272 215 243 287 317 286 276 261 267 273 268 268 261 256 262 272 275 276 282 286
241 244 242 236 227 222 220 225 230 216 189 171 180 199 191 234 210 175 224 163 150 138 136 174 177 162 190 201 209 211 204 78 152 172 196 200 246 211 205 227 201 196 203 198 209 197 168 255 297 80 172 267 20 101 83 57 124 130 187 203 169 93 102 112 219 352 40 248 271 245 244 279 289 272 295 294 262 265 263 257 256 262 268 271 272 278 285 288
232 256 258 245 234 226 216 220 224 204 187 176 219 205 187 223 210 199 206 121 135 150 178 219 201 167 179 192 204 187 175 179 175 186 191 185 247 210 190 214 206 203 210 202 216 255 164 231 300 49 176 280 36 110 98 15 85 134 182 179 126 146 207 119 158 206 216 251 281 287 275 258 211 233 279 242 229 242 252 250 251 260 260 261 268 278 286 291
224 256 266 252 239 226 214 216 213 199 189 179 213 208 199 214 220 210 200 223 146 167 205 228 204 168 176 180 175 161 181 190 172 180 190 183 234 211 184 197 209 206 205 194 195 253 141 197 272 330 232 291 45 146 192 197 50 67 107 138 119 162 184 166 158 170 184 228 270 308 315 266 216 208 211 220 222 221 233 239 234 243 247 254 265 274 285 296
229 250 264 252 244 227 210 207 204 196 194 228 210 203 193 201 218 213 207 208 190 179 218 230 196 190 194 176 155 160 195 200 177 188 206 190 219 240 192 191 189 191 192 186 194 229 106 203 239 327 343 177 179 212 197 178 164 153 163 176 186 152 116 160 187 133 139 165 200 300 298 268 236 190 197 216 220 207 208 214 230 243 242 249 263 273 292 304
231 250 262 243 241 217 194 191 196 196 204 228 220 222 210 195 190 207 209 210 218 228 223 223 211 207 194 180 184 176 183 198 185 193 222 205 213 245 204 189 170 133 142 167 198 204 186 197 189 162 202 200 217 243 211 190 183 180 186 192 191 176 148 181 231 210 116 159 175 175 276 270 243 180 199 215 211 205 209 212 233 244 237 249 273 279 296 304
231 248 241 210 214 196 184 180 192 201 206 220 224 222 201 180 168 192 198 202 220 241 231 223 226 218 201 187 195 173 162 189 194 195 225 220 215 229 208 189 175 156 145 169 204 199 175 125 158 195 213 217 239 308 271 218 195 183 205 202 191 184 172 177 206 213 146 206 172 115 268 273 265 165 200 216 212 229 236 225 231 240 233 254 277 280 296 303
233 242 236 213 203 188 180 184 212 197 214 226 227 222 195 186 187 178 180 190 205 217 216 219 201 208 222 201 176 170 170 190 195 201 229 239 230 234 208 181 174 161 153 181 205 182 130 105 196 235 296 306 317 353 17 38 120 205 242 192 168 193 185 161 179 181 164 198 175 111 248 266 292 35 234 237 243 260 254 233 230 239 237 239 257 275 308 312
243 253 258 240 207 188 178 189 202 200 225 227 228 225 214 218 203 178 178 187 195 195 205 220 206 210 224 187 168 190 188 194 204 211 223 246 244 228 201 184 178 171 183 196 176 168 168 181 201 216 266 300 311 312 295 288 184 217 230 190 185 187 162 121 131 136 177 216 185 163 240 251 286 343 307 317 296 275 262 240 234 242 243 236 242 265 307 307
252 260 262 248 229 216 211 216 205 200 214 220 230 223 218 229 211 202 203 197 196 191 190 216 212 206 211 191 205 209 192 200 217 212 218 240 259 220 199 191 182 187 212 218 187 170 177 192 190 198 225 230 231 235 223 199 166 230 227 196 196 186 171 176 183 157 223 225 183 182 240 248 311 343 305 312 315 282 256 237 234 242 246 245 241 251 286 292
233 247 245 236 237 243 252 243 227 214 205 216 228 218 216 230 219 209 209 203 201 201 207 218 198 189 199 202 213 220 209 211 217 205 206 224 235 251 199 192 187 200 215 219 196 163 164 230 201 202 214 221 234 243 188 134 144 206 219 194 192 196 187 189 190 197 220 220 188 217 235 248 262 256 251 267 262 247 243 232 232 238 245 250 249 254 276 285
214 228 210 202 229 242 250 247 235 219 206 209 207 205 216 224 227 211 204 203 203 202 214 229 192 186 200 203 211 223 220 219 221 221 219 219 230 313 199 189 196 211 215 209 186 162 127 262 221 221 223 224 240 241 189 152 174 200 208 193 192 197 186 190 209 217 213 196 233 234 223 243 256 236 209 240 238 232 246 239 238 241 240 246 252 256 268 278
217 235 227 218 224 227 231 241 240 231 226 219 211 220 222 219 223 215 198 206 210 201 204 221 208 204 205 202 209 222 220 221 226 227 229 227 226 336 281 204 217 220 211 198 188 165 158 236 226 235 238 240 252 244 186 185 198 198 201 194 192 192 186 196 215 222 213 195 239 244 209 222 252 242 202 218 218 215 232 236 242 248 246 248 257 264 270 274
220 238 236 228 235 261 269 283 284 247 237 233 221 222 224 219 222 219 197 198 217 205 201 212 215 215 215 210 209 217 217 217 223 227 228 228 215 188 220 246 243 219 187 174 204 169 167 225 225 230 241 249 255 246 189 198 219 209 207 198 190 192 194 203 214 222 222 216 238 252 239 235 251 244 206 215 219 223 235 242 246 249 249 253 260 267 271 274
217 225 232 232 246 273 281 288 303 269 242 239 230 221 222 222 223 221 203 196 207 202 201 216 222 216 214 216 216 223 223 217 225 230 217 213 218 201 211 220 202 197 176 174 214 182 186 221 219 214 235 250 250 245 204 198 217 224 225 213 202 200 201 208 216 220 224 229 240 249 255 258 254 221 193 214 219 225 236 241 244 248 251 254 258 261 267 272
221 221 223 229 248 250 261 265 251 252 246 228 227 227 227 226 223 224 220 212 213 209 195 212 226 224 218 218 217 227 232 224 229 236 219 210 220 212 207 207 185 182 192 184 178 165 185 222 199 180 224 244 245 236 203 200 222 235 238 227 214 209 206 208 213 213 211 219 234 242 251 257 249 178 187 215 209 220 237 235 241 251 254 255 258 260 267 273
224 225 227 238 258 231 236 266 235 238 244 229 228 233 238 241 231 229 235 222 218 221 215 210 219 223 221 220 216 223 231 230 234 242 236 229 228 219 211 213 201 188 183 176 173 164 170 193 202 180 218 245 242 201 169 177 207 233 236 228 217 210 206 206 215 221 214 208 219 230 237 247 247 221 228 229 196 217 241 240 242 251 255 259 264 267 271 275